FW1480 Weather Reports


Display with metric or nautical units.
time (UTC)temp
F
wind
direction
speed
MPH
gust
MPH
rain 1hr
in
rain 24hr
in
rain mn
in
humidity
%
barometer
mb
20260504043640 45 348 0.0 0.0 0.00 0.00 0.00 61 1013.3
20260504043137 45 349 0.0 0.0 0.00 0.00 0.00 61 1013.2
20260504042638 45 348 0.0 0.0 0.00 0.00 0.00 61 1013.2
20260504042138 45 347 0.0 0.0 0.00 0.00 0.00 62 1013.2
20260504041637 44 347 0.0 0.0 0.00 0.00 0.00 63 1013.2
20260504040632 45 347 0.0 0.0 0.00 0.00 0.00 63 1013.2
20260504040131 46 347 0.0 0.0 0.00 0.00 0.00 62 1013.2
20260504035628 46 347 0.0 0.0 0.00 0.00 0.00 57 1013.1
20260504035126 46 347 0.0 0.0 0.00 0.00 0.00 57 1013.1
20260504034624 46 347 0.0 0.0 0.00 0.00 0.00 58 1013.1
20260504034120 46 347 0.0 0.0 0.00 0.00 0.00 58 1013.0
20260504033622 46 347 0.0 0.0 0.00 0.00 0.00 59 1013.0
20260504033121 46 347 0.0 0.0 0.00 0.00 0.00 59 1013.1
20260504032621 46 347 0.0 0.0 0.00 0.00 0.00 59 1013.1
20260504031621 46 347 0.0 0.0 0.00 0.00 0.00 59 1013.1
20260504031118 46 347 0.0 0.0 0.00 0.00 0.00 58 1013.1
20260504030619 46 347 0.0 0.0 0.00 0.00 0.00 58 1013.0
20260504030118 46 347 0.0 0.0 0.00 0.00 0.00 58 1013.0
20260504025619 46 347 0.0 0.0 0.00 0.00 0.00 57 1013.0
20260504025120 46 347 0.0 0.0 0.00 0.00 0.00 57 1013.0
20260504024619 46 347 0.0 0.0 0.00 0.00 0.00 58 1013.0
20260504024118 46 347 0.0 0.0 0.00 0.00 0.00 57 1013.1
20260504023118 46 347 0.0 0.0 0.00 0.00 0.00 58 1013.1
20260504022619 46 347 0.0 0.0 0.00 0.00 0.00 57 1013.2
20260504022120 46 347 0.0 0.0 0.00 0.00 0.00 57 1013.2
20260504021618 46 347 0.0 0.0 0.00 0.00 0.00 55 1013.2
20260504021119 46 347 0.0 0.0 0.00 0.00 0.00 55 1013.2
20260504020119 47 347 0.0 0.0 0.00 0.00 0.00 54 1013.1
20260504015618 47 347 0.0 0.0 0.00 0.00 0.00 54 1013.0
20260504015120 47 347 0.0 0.0 0.00 0.00 0.00 53 1013.0
20260504014619 47 347 0.0 0.0 0.00 0.00 0.00 54 1013.1
20260504014118 47 347 0.0 0.0 0.00 0.00 0.00 53 1013.0
20260504013120 48 347 0.0 0.0 0.00 0.00 0.00 52 1013.1
20260504012619 48 347 0.0 0.0 0.00 0.00 0.00 51 1013.0
20260504012120 48 347 0.0 0.0 0.00 0.00 0.00 50 1012.9
20260504011620 49 347 0.0 0.0 0.00 0.00 0.00 51 1012.9
20260504011118 49 6 0.0 0.0 0.00 0.00 0.00 48 1012.8
20260504010620 49 118 0.0 0.0 0.00 0.00 0.00 49 1012.8
20260504010117 49 118 0.0 0.0 0.00 0.00 0.00 48 1012.7
20260504005618 49 118 0.0 0.0 0.00 0.00 0.00 48 1012.5
20260504005114 49 118 0.0 0.0 0.00 0.00 0.00 47 1012.4
20260504004616 49 118 0.0 0.0 0.00 0.00 0.00 47 1012.3
20260504003607 50 118 0.0 0.0 0.00 0.00 0.00 46 1012.2
20260504002555 51 118 0.0 0.0 0.00 0.00 0.00 45 1012.0
20260504002050 51 118 0.0 0.0 0.00 0.00 0.00 46 1011.9
20260504001543 51 98 0.0 0.0 0.00 0.00 0.00 45 1011.7
20260504000530 51 147 0.0 0.0 0.00 0.00 0.00 44 1011.5
20260504000025 51 333 0.0 0.0 0.00 0.00 0.00 43 1011.5
20260503235519 51 333 0.0 0.0 0.00 0.00 0.00 43 1011.6
20260503235013 51 333 0.0 0.0 0.00 0.00 0.00 41 1011.5
20260503234514 52 330 0.0 0.0 0.00 0.00 0.00 41 1011.4
20260503233006 53 276 0.0 0.0 0.00 0.00 0.00 41 1011.3
20260503232507 53 119 0.0 0.0 0.00 0.00 0.00 36 1011.2
20260503232007 53 124 0.0 0.0 0.00 0.00 0.00 38 1011.2
20260503231505 53 124 0.0 0.0 0.00 0.00 0.00 39 1011.1
20260503231002 53 122 0.0 0.0 0.00 0.00 0.00 37 1011.2
20260503225959 54 94 0.0 0.0 0.00 0.00 0.00 35 1011.1
20260503224955 54 96 0.0 1.0 0.00 0.00 0.00 34 1010.9
20260503224454 54 155 0.0 1.0 0.00 0.00 0.00 34 1010.9
20260503223951 54 112 0.0 1.0 0.00 0.00 0.00 34 1010.8
20260503223449 55 160 0.0 6.0 0.00 0.00 0.00 33 1010.8
20260503222946 55 198 0.0 6.0 0.00 0.00 0.00 34 1010.7
20260503222446 55 49 0.0 1.0 0.00 0.00 0.00 35 1010.7
20260503221947 55 112 0.0 3.0 0.00 0.00 0.00 35 1010.8
20260503221445 55 59 0.0 3.0 0.00 0.00 0.00 33 1010.7
20260503220944 55 155 0.0 6.0 0.00 0.00 0.00 34 1010.7
20260503220447 55 305 0.0 6.0 0.00 0.00 0.00 33 1010.8
20260503215940 55 317 0.0 6.0 0.00 0.00 0.00 35 1010.8
20260503215435 55 47 0.0 6.0 0.00 0.00 0.00 34 1010.7
20260503213916 55 41 0.0 7.0 0.00 0.00 0.00 36 1010.9
20260503213410 54 93 0.0 7.0 0.00 0.00 0.00 37 1010.8
20260503212904 54 133 0.0 7.0 0.00 0.00 0.00 39 1010.7
20260503212358 54 240 0.0 7.0 0.00 0.00 0.00 36 1010.7
20260503211853 54 115 0.0 2.0 0.00 0.00 0.00 38 1010.8
20260503211345 53 157 0.0 2.0 0.00 0.00 0.00 37 1010.7
20260503210838 54 296 0.0 5.0 0.00 0.00 0.00 38 1010.7
20260503210339 54 224 0.0 5.0 0.00 0.00 0.00 37 1010.8
20260503205840 54 3 0.0 1.0 0.00 0.00 0.00 38 1010.8
20260503205338 54 155 0.0 1.0 0.00 0.00 0.00 39 1010.8
20260503204836 55 120 0.0 7.0 0.00 0.00 0.00 39 1010.7
20260503204336 55 244 0.0 7.0 0.00 0.00 0.00 39 1010.7
20260503203836 54 125 0.0 5.0 0.00 0.00 0.00 39 1010.6
20260503203333 54 30 1.0 10.0 0.00 0.00 0.00 41 1010.7
20260503202335 54 288 1.0 10.0 0.00 0.00 0.00 39 1010.7
20260503201832 54 68 1.0 10.0 0.00 0.00 0.00 40 1010.7
20260503201331 55 75 0.0 6.0 0.00 0.00 0.00 41 1010.8
20260503200831 55 23 0.0 5.0 0.00 0.00 0.00 40 1010.8
20260503200332 55 198 1.0 5.0 0.00 0.00 0.00 41 1010.8
20260503195833 54 225 1.0 6.0 0.00 0.00 0.00 40 1010.9
20260503195328 54 50 1.0 11.0 0.00 0.00 0.00 40 1011.0
20260503194829 53 114 1.0 11.0 0.00 0.00 0.00 40 1010.9
20260503194328 54 316 0.0 4.0 0.00 0.00 0.00 40 1010.9
20260503193828 53 101 0.0 3.0 0.00 0.00 0.00 40 1010.9
20260503192828 54 349 1.0 9.0 0.00 0.00 0.00 39 1011.0
20260503192328 53 181 1.0 9.0 0.00 0.00 0.00 40 1011.1
20260503191828 53 117 1.0 9.0 0.00 0.00 0.00 41 1011.1
20260503191329 53 293 1.0 12.0 0.00 0.00 0.00 41 1011.2
20260503190829 53 141 1.0 12.0 0.00 0.00 0.00 40 1011.1
20260503190328 52 65 1.0 9.0 0.00 0.00 0.00 42 1011.2
20260503185827 52 171 1.0 4.0 0.00 0.00 0.00 41 1011.1
20260503184827 51 141 0.0 5.0 0.00 0.00 0.00 44 1011.1
20260503184328 51 278 1.0 9.0 0.00 0.00 0.00 44 1011.1
20260503183826 51 134 1.0 9.0 0.00 0.00 0.00 44 1011.3
20260503183327 51 128 0.0 5.0 0.00 0.00 0.00 43 1011.1
20260503182826 52 313 0.0 7.0 0.00 0.00 0.00 42 1011.2
20260503182326 52 38 1.0 8.0 0.00 0.00 0.00 42 1011.2
20260503181826 52 219 0.0 8.0 0.00 0.00 0.00 42 1011.2
20260503180823 51 113 0.0 7.0 0.00 0.00 0.00 42 1011.2
20260503180323 52 117 0.0 4.0 0.00 0.00 0.00 41 1011.1
20260503175819 52 148 0.0 2.0 0.00 0.00 0.00 42 1011.1
20260503175319 53 259 0.0 4.0 0.00 0.00 0.00 40 1011.3
20260503174817 52 162 1.0 4.0 0.00 0.00 0.00 41 1011.2
20260503174316 53 58 1.0 9.0 0.00 0.00 0.00 41 1011.1
20260503173814 53 245 1.0 11.0 0.00 0.00 0.00 40 1011.1
20260503173314 53 148 1.0 11.0 0.00 0.00 0.00 39 1011.3
20260503172815 53 127 0.0 6.0 0.00 0.00 0.00 39 1011.2
20260503172313 54 153 0.0 6.0 0.00 0.00 0.00 42 1011.2
20260503171814 54 200 0.0 6.0 0.00 0.00 0.00 39 1011.3
20260503171314 54 325 0.0 6.0 0.00 0.00 0.00 43 1011.1
20260503170815 52 116 1.0 9.0 0.00 0.00 0.00 42 1011.2
20260503170314 52 116 1.0 9.0 0.00 0.00 0.00 39 1011.2
20260503160202 49 203 1.0 5.0 0.00 0.00 0.00 47 1011.6
20260503130516 44 203 1.0 5.0 0.00 0.00 0.00 63 1012.1
20260503110516 0 0.0 0.0 0.00 0.00 0.00 1011.9
20260503080129 40 140 0.0 1.0 0.00 0.00 0.00 70 1011.5
20260503072546 40 64 0.0 2.0 0.00 0.00 0.00 69 1011.6
20260503072045 40 49 0.0 4.0 0.00 0.00 0.00 68 1011.5
20260503071545 40 60 0.0 4.0 0.00 0.00 0.00 67 1011.5
20260503070543 40 58 0.0 6.0 0.00 0.00 0.00 67 1011.5
20260503055033 42 70 0.0 4.0 0.00 0.00 0.00 65 1012.1
20260503054533 43 94 0.0 2.0 0.00 0.00 0.00 65 1012.2
20260503054034 43 135 0.0 3.0 0.00 0.00 0.00 65 1012.2
20260503053534 43 120 0.0 3.0 0.00 0.00 0.00 64 1012.1
20260503053035 43 59 0.0 2.0 0.00 0.00 0.00 64 1012.0
20260503052533 43 118 0.0 1.0 0.00 0.00 0.00 64 1012.2
20260503052034 43 72 0.0 1.0 0.00 0.00 0.00 63 1012.3
20260503051534 43 49 0.0 1.0 0.00 0.00 0.00 63 1012.4
20260503051033 43 41 0.0 0.0 0.00 0.00 0.00 63 1012.4
20260503050535 43 60 0.0 1.0 0.00 0.00 0.00 64 1012.4
20260503050034 43 321 0.0 1.0 0.00 0.00 0.00 63 1012.4
20260503045534 43 122 0.0 0.0 0.00 0.00 0.00 63 1012.5
20260503045033 43 108 0.0 1.0 0.00 0.00 0.00 63 1012.5
20260503044529 44 75 0.0 1.0 0.00 0.00 0.00 63 1012.5
20260503044029 44 217 0.0 1.0 0.00 0.00 0.00 62 1012.6